Weather History for Kirksville, MO

Change the Weather History Date:

Thursday, June 19, 2014

  Actual Average Record
Temperature  
Mean Temperature 78 °F 72 °F  
Max Temperature 88 °F 82 °F 105 °F (1936)
Min Temperature 68 °F 62 °F 49 °F (1935)
Degree Days  
Heating Degree Days 0 0  
Month to date heating degree days 6 12  
Since 1 June heating degree days 6 12  
Since 1 July heating degree days 6434 5852  
Cooling Degree Days 13 7  
Month to date cooling degree days 115 103  
Year to date cooling degree days 237 165  
Since 1 June cooling degree days 115 103  
Growing Degree Days 28 (Base 50)    
Moisture  
Dew Point 71 °F    
Average Humidity 83    
Maximum Humidity 100    
Minimum Humidity 65    
Precipitation  
Precipitation 0.12 in 0.16 in 1.70 in (1939)
Month to date precipitation 5.53 3.38  
Year to date precipitation 14.63 17.53  
Sea Level Pressure  
Sea Level Pressure 29.97 in    
Wind  
Wind Speed 8 mph (SSW)    
Max Wind Speed 20 mph    
Max Gust Speed 27 mph    
Visibility 9 miles    
Events Rain , Thunderstorm    
T = Trace of Precipitation, MM = Missing Value Source: NWS Daily Summary

Daily Weather History Graph

Daily Weather History Graph

Search for Another Location

Airport:

Trip Planner

Search our weather history database for the weather conditions in past years. The results will help you decide how hot, cold, wet, or windy it might be!

Date:

Astronomy

Jun. 19, 2014 Rise Set
Actual Time 5:40 AM CDT 8:42 PM CDT
Civil Twilight 5:07 AM CDT 9:15 PM CDT
Nautical Twilight 4:26 AM CDT 9:57 PM CDT
Astronomical Twilight 3:37 AM CDT 10:46 PM CDT
Moon 12:46 AM CDT (6/19) 1:12 PM CDT (6/19)
Length of Visible Light 16h 07m
Length of Day
15h 01m
Waning Gibbous, 51% of the Moon is Illuminated
Jun 19
Waning Gibbous
Jun 19
Last Quarter
Jun 27
New
Jul 5
First Quarter
Jul 12
Full

Hourly Weather History & Observations

Time (CDT) Temp. Heat Index Dew Point Humidity Pressure Visibility Wind Dir Wind Speed Gust Speed Precip Events Conditions
12:55 AM 78.1 °F - 71.1 °F 79% 29.92 in 10.0 mi South 9.2 mph - N/A   Mostly Cloudy
2:55 AM 77.0 °F - 69.1 °F 76% 29.91 in 10.0 mi SSW 8.1 mph - N/A   Scattered Clouds
3:55 AM 73.9 °F - 69.1 °F 85% 29.91 in 10.0 mi South 5.8 mph - N/A   Partly Cloudy
4:55 AM 73.4 °F - 69.8 °F 88% 29.96 in 10.0 mi ESE 5.8 mph - N/A   Scattered Clouds
5:55 AM 73.0 °F - 70.0 °F 90% 29.97 in 9.0 mi SSE 6.9 mph - N/A   Overcast
6:55 AM 73.0 °F - 70.0 °F 90% 29.99 in 10.0 mi South 8.1 mph - 0.00 in   Scattered Clouds
7:55 AM 75.9 °F - 70.0 °F 82% 29.99 in 10.0 mi South 12.7 mph - N/A   Scattered Clouds
8:55 AM 75.0 °F - 69.1 °F 82% 29.99 in 10.0 mi SW 9.2 mph - 0.00 in Rain , Thunderstorm Light Rain
9:08 AM 73.9 °F - 70.0 °F 87% 30.01 in 2.5 mi SW 6.9 mph - 0.02 in Rain Rain
9:19 AM 73.9 °F - 70.0 °F 87% 30.00 in 1.8 mi South 9.2 mph - 0.09 in Rain Light Rain
9:24 AM 73.9 °F - 71.1 °F 91% 30.00 in 3.0 mi South 8.1 mph - 0.09 in Rain Light Rain
10:55 AM 82.0 °F 87.4 °F 73.0 °F 74% 29.96 in 10.0 mi South 12.7 mph - 0.00 in   Clear
11:55 AM 82.9 °F 88.0 °F 72.0 °F 69% 29.97 in 10.0 mi SSW 13.8 mph - N/A   Clear
12:55 PM 86.0 °F 93.0 °F 73.0 °F 65% 29.97 in 10.0 mi SSW 15.0 mph 21.9 mph N/A   Partly Cloudy
1:55 PM 86.0 °F 93.0 °F 73.0 °F 65% 29.94 in 10.0 mi SSW 13.8 mph - N/A   Scattered Clouds
2:28 PM 86.0 °F 92.2 °F 72.0 °F 63% 29.96 in 10.0 mi SW 15.0 mph - N/A Thunderstorm Mostly Cloudy
2:39 PM 84.9 °F 90.7 °F 72.0 °F 65% 29.95 in 10.0 mi SSW 19.6 mph 27.6 mph N/A Thunderstorm Thunderstorm
2:55 PM 80.1 °F 84.2 °F 73.0 °F 79% 29.95 in 8.0 mi SSW 16.1 mph - 0.00 in Rain , Thunderstorm Light Thunderstorms and Rain
3:29 PM 75.9 °F - 70.0 °F 82% 29.94 in 10.0 mi South 6.9 mph - 0.00 in Thunderstorm Mostly Cloudy
3:36 PM 75.9 °F - 69.1 °F 79% 29.94 in 10.0 mi South 8.1 mph - 0.00 in   Scattered Clouds
3:55 PM 77.0 °F - 71.1 °F 82% 29.93 in 10.0 mi South 10.4 mph - 0.00 in   Partly Cloudy
4:55 PM 82.0 °F 87.4 °F 73.0 °F 74% 29.94 in 10.0 mi South 12.7 mph 20.7 mph N/A   Clear
5:55 PM 75.0 °F - 69.1 °F 82% 29.95 in 8.0 mi WSW 9.2 mph - 0.00 in Rain Light Rain
6:55 PM 73.0 °F - 69.1 °F 87% 29.99 in 10.0 mi SSW 3.5 mph - 0.02 in Rain Light Rain
7:55 PM 73.0 °F - 70.0 °F 90% 30.00 in 10.0 mi WSW 3.5 mph - 0.00 in   Clear
8:55 PM 72.0 °F - 69.1 °F 91% 30.00 in 10.0 mi Calm Calm - N/A   Clear
9:55 PM 72.0 °F - 70.0 °F 93% 30.00 in 10.0 mi East 3.5 mph - N/A   Clear
10:55 PM 71.1 °F - 69.1 °F 93% 30.01 in 7.0 mi Calm Calm - N/A   Clear
11:55 PM 70.0 °F - 69.1 °F 97% 30.00 in 9.0 mi Calm Calm - N/A   Partly Cloudy